Location: Newark
(33.6333°S, 78.8500°W)
Time: 20:27:18
(UTC+00:00)

Courier 1B - Pass Details

Date: 28 September 2019
Orbit: 962 x 1209 km, 28.3° (Epoch: 15 October)

Event Time Altitude Azimuth Distance (km) Brightness Sun altitude
Rises 23:44:13 0° 269° (W) 4,097 13.2 -6.7°
Reaches altitude 10° 23:47:15 10° 275° (W) 3,111 11.7 -7.3°
Maximum altitude 23:54:29 44° 344° (NNW) 1,539 8.6 -8.8°
Drops below altitude 10° 00:01:20 10° 53° (NE) 2,949 9.5 -10.2°
Enters shadow 00:01:41 - 54° (NE) 3,061 9.5 -10.3°
Sets 00:04:08 0° 60° (ENE) 3,865 - -10.8°
